Flag for Canada Weather past 2 weeks in Coquitlam, British Columbia, Canada

Now
86 °F

Pleasantly warm.


Feels Like: 83 °F
Forecast: 57 / 68 °F
Wind: 1 mph from Northwest

Location: P. Meadows Coastal Station

Current Time: Sep 21, 2014 at 5:18:42 PM

Latest Report: Sep 21, 2014 at 4:00 PM


Visibility: N/A

Pressure: 29.80 "Hg

Humidity: 29%

Dew point: 50 °F

Location of CoquitlamLocation

Historic Weather in Coquitlam — Graph

°F

Coquitlam temperature yesterday

Maximum temperature yesterday: 74 °F (at 4:00 PM)
Minimum temperature yesterday: 52 °F (at 5:00 AM)
Average temperature yesterday: 62 °F

Past Weeks' High & Low Weather Summary

 TemperatureHumidityPressure
High87 °F (Sep 15, 4:00 PM)100% (Sep 15, 7:00 AM)30.34 "Hg (Sep 15, 7:00 AM)
Low43 °F (Sep 12, 7:00 AM)17% (Sep 10, 5:00 PM)29.70 "Hg (Sep 17, 7:00 PM)
Average63 °F70%29.96 "Hg
* Reported Sep 6 4:00 PM — Sep 21 4:00 PM, Coquitlam, Weather by CustomWeather, © 2014

Note: Actual official high and low records may vary slightly from our data, if they occured in-between our weather recording intervals... More about our weather records

Advertising

Coquitlam weather history for previous 24 hours

 ConditionsComfort  
Time TempWeatherWind HumidityBarometerVisibility
4:00 PM
Sep 21
86 °FPleasantly warm.1 mph29%29.80 "HgN/A
3:00 PM84 °FPleasantly warm.2 mph31%29.81 "HgN/A
1:00 PM78 °FWarm.2 mph45%29.85 "HgN/A
12:00 PM74 °FMild.2 mph57%29.85 "HgN/A
11:00 AM69 °FMild.1 mph63%29.86 "HgN/A
10:00 AM65 °FMild.1 mph77%29.87 "HgN/A
9:00 AM58 °FCool.1 mph96%29.87 "HgN/A
8:00 AM52 °FCool.No wind100%29.88 "HgN/A
7:00 AM50 °FCool.1 mph99%29.87 "HgN/A
6:00 AM51 °FCool.No wind99%29.86 "HgN/A
5:00 AM52 °FCool.2 mph99%29.87 "HgN/A
4:00 AM52 °FCool.No wind99%29.88 "HgN/A
3:00 AM54 °FCool.1 mph98%29.88 "HgN/A
2:00 AM53 °FCool.1 mph98%29.89 "HgN/A
1:00 AM55 °FCool.No wind98%29.90 "HgN/A
12:00 AM56 °FCool.No wind96%29.90 "HgN/A
11:00 PM
Sep 20
57 °FCool.1 mph95%29.91 "HgN/A
10:00 PM60 °FCool.1 mph92%29.92 "HgN/A
9:00 PM63 °FMild.1 mph85%29.92 "HgN/A
8:00 PM66 °FMild.2 mph77%29.93 "HgN/A
7:00 PM69 °FMild.2 mph65%29.93 "HgN/A
6:00 PM73 °FMild.5 mph58%29.95 "HgN/A
5:00 PM74 °FMild.6 mph54%29.98 "HgN/A
Weather by CustomWeather, © 2014

See weather overviewHow to use our weather pages